Location: *
(46.1833°N, 22.7667°E)
Time: 00:35:45
(UTC+00:00)

Meteor 1-4 Rocket - Pass Details

Date: 17 September 2019
Orbit: 449 x 504 km, 81.2° (Epoch: 16 October)

Event Time Altitude Azimuth Distance (km) Brightness Sun altitude
Rises 18:42:14 0° 346° (NNW) 2,531 6.8 -21.5°
Reaches altitude 10° 18:44:22 10° 344° (NNW) 1,638 5.8 -21.8°
Maximum altitude 18:47:55 66° 262° (W) 510 2.7 -22.4°
Enters shadow 18:47:55 66° 261° (W) 510 2.7 -22.4°
